Seattle Boeing, WA
on Friday, February 1, 2013

Friday
Previous Day Next Day
Daily Summary
 ActualAverage (KSEA)Record (KSEA)
Temperature
Mean Temperature °F 43°F  
Max Temperature 51°F 49°F 63°F (1962)
Min Temperature 44°F 37°F 1°F (1950)
Degree Days
Heating Degree Days 18 22  
Month to date heating degree days 22  
Since 1 July heating degree days 2671  
Cooling Degree Days 0 0  
Month to date cooling degree days 0  
Year to date cooling degree days 0  
Moisture
Dew Point 43°F   
Average Humidity 83    
Maximum Humidity 93    
Minimum Humidity 71    
Precipitation
Precipitation 0.00 in 0.13 in 1.34 in (2000)
Month to date precipitation 0.13  
Year to date precipitation 5.70  
Snow
Snow 0.00 in in 5.80 in (1989)
Month to date snowfall  
Since 1 July snowfall  
Snow Depth in   
Wind
Wind Speed 2 mph   
Max Wind Speed 7 mph   
Max Gust Speed mph   
Visibility 9 miles   
Events     

Key: T is trace of precipitation, MM is missing value
Source: NWS Daily Summary
Time(PST)TemperatureDew PointHumidity Pressure Visibility Wind DirectionWind SpeedGust SpeedPrecipitationEvents Conditions
12:53 AM 48.9°F 45.0°F 86% 30.34 in 10.0 miles Calm Calm - N/A   Overcast
1:53 AM 48.0°F 45.0°F 89% 30.36 in 7.0 miles Calm Calm - N/A   Overcast
2:05 AM 46.4°F 44.6°F 93% 30.36 in 7.0 miles SSE 6.9 mph - N/A   Overcast
2:38 AM 48.2°F 44.6°F 87% 30.37 in 10.0 miles Calm Calm - N/A   Overcast
2:53 AM 48.0°F 44.1°F 86% 30.37 in 10.0 miles Calm Calm - N/A   Overcast
3:53 AM 46.9°F 44.1°F 90% 30.37 in 10.0 miles Calm Calm - N/A   Overcast
4:24 AM 46.4°F 44.6°F 93% 30.38 in 10.0 miles Calm Calm - N/A   Overcast
4:32 AM 48.2°F 44.6°F 87% 30.38 in 10.0 miles Calm Calm - N/A   Overcast
4:39 AM 46.4°F 44.6°F 93% 30.38 in 10.0 miles Calm Calm - N/A   Overcast
4:53 AM 46.9°F 44.1°F 90% 30.38 in 10.0 miles SE 3.5 mph - N/A   Mostly Cloudy
5:29 AM 46.4°F 42.8°F 87% 30.38 in 10.0 miles Calm Calm - N/A   Overcast
5:53 AM 46.4°F 42.8°F 87% 30.38 in 10.0 miles Calm Calm - N/A   Mostly Cloudy
6:53 AM 46.4°F 42.8°F 87% 30.38 in 10.0 miles NE 4.6 mph - N/A   Overcast
7:53 AM 46.9°F 42.1°F 83% 30.38 in 10.0 miles Calm Calm - N/A   Mostly Cloudy
8:46 AM 46.4°F 42.8°F 87% 30.38 in 5.0 miles Calm Calm - N/A   Overcast
8:53 AM 46.0°F 43.0°F 89% 30.38 in 5.0 miles Calm Calm - N/A   Overcast
9:53 AM 48.0°F 43.0°F 83% 30.39 in 5.0 miles North 3.5 mph - N/A   Overcast
10:44 AM 48.2°F 42.8°F 82% 30.41 in 7.0 miles Calm Calm - N/A   Mostly Cloudy
10:53 AM 48.9°F 43.0°F 80% 30.41 in 7.0 miles Calm Calm - N/A   Mostly Cloudy
11:53 AM 48.9°F 43.0°F 80% 30.41 in 10.0 miles NE 3.5 mph - N/A   Overcast
12:53 PM 48.2°F 42.8°F 82% 30.40 in 10.0 miles WNW 3.5 mph - N/A   Overcast
1:53 PM 51.1°F 42.1°F 71% 30.39 in 10.0 miles Variable 3.5 mph - N/A   Scattered Clouds
2:53 PM 51.1°F 42.1°F 71% 30.38 in 10.0 miles WNW 5.8 mph - N/A   Scattered Clouds
3:53 PM 50.0°F 42.1°F 74% 30.37 in 10.0 miles NW 4.6 mph - N/A   Scattered Clouds
4:53 PM 50.0°F 42.1°F 74% 30.37 in 10.0 miles NW 4.6 mph - N/A   Partly Cloudy
5:53 PM 48.9°F 41.0°F 74% 30.37 in 10.0 miles NNW 4.6 mph - N/A   Clear
6:53 PM 48.0°F 42.1°F 80% 30.38 in 10.0 miles Calm Calm - N/A   Mostly Cloudy
7:53 PM 48.0°F 41.0°F 77% 30.39 in 10.0 miles North 3.5 mph - N/A   Mostly Cloudy
8:53 PM 46.9°F 39.9°F 77% 30.39 in 10.0 miles North 3.5 mph - N/A   Mostly Cloudy
9:22 PM 46.4°F 39.2°F 76% 30.40 in 10.0 miles NNE 3.5 mph - N/A   Scattered Clouds
9:53 PM 45.0°F 39.9°F 82% 30.39 in 10.0 miles North 4.6 mph - N/A   Scattered Clouds
10:53 PM 44.1°F 39.9°F 85% 30.39 in 9.0 miles Calm Calm - N/A   Partly Cloudy
11:21 PM 44.6°F 39.2°F 81% 30.39 in 5.0 miles Calm Calm - N/A   Haze
11:53 PM 45.0°F 39.9°F 82% 30.38 in 5.0 miles North 4.6 mph - N/A   Haze
Moon Phase
Feb. 01 Feb. 03 Feb. 10 Feb. 17 Feb. 25
Sunrise:07:35 AM (PST) Moon Rise:11:56 PM (PST)2/1
Sunset:05:11 PM (PST) Moon Set:09:43 AM (PST)2/1

Copyright © 2014 The Weather Underground, Inc.